Wind_Speed
32 32 32 32 33 33 34 35 36 36 34 34 33 32 31 30 30 30 30 31 31 31 30 30 31 32 33 34 36 36 35 36 37 38 39 39 39 39
33 33 33 32 33 34 34 35 36 35 34 32 32 31 30 30 30 30 30 30 30 30 31 30 30 31 33 33 32 32 33 34 36 35 35 36 37 38
33 33 33 33 33 33 34 34 34 33 32 31 32 30 29 28 29 29 30 31 30 30 30 30 30 31 31 31 31 32 32 32 32 33 33 34 35 36
33 33 33 34 34 34 34 34 33 32 31 30 29 29 28 29 29 30 30 31 30 30 29 29 29 29 30 31 31 30 30 31 31 31 32 33 34 35
33 33 33 33 33 33 33 32 32 31 31 29 29 29 29 29 29 30 30 29 29 28 27 27 28 28 29 30 29 28 28 29 29 30 31 32 33 34
33 33 33 32 32 31 31 30 30 31 30 29 29 29 29 30 29 28 27 26 26 26 25 26 27 26 27 27 26 25 26 28 29 30 30 31 31 32
32 32 31 31 31 30 30 29 30 30 29 29 29 29 29 29 28 27 26 25 25 25 25 26 27 27 26 26 25 25 26 28 28 28 29 29 30 29
31 31 30 30 30 30 30 30 30 29 28 28 28 28 27 27 26 25 25 25 25 24 24 25 27 27 26 26 25 26 26 27 27 28 28 28 27 27
30 30 30 29 29 29 29 29 29 28 27 26 26 26 26 25 25 24 23 24 24 24 24 25 26 27 26 25 25 25 25 26 27 27 27 27 26 26
29 29 29 28 28 28 27 27 27 26 25 25 25 25 24 23 23 22 22 23 23 23 24 24 25 26 25 25 25 24 25 26 26 26 27 27 26 25
29 29 27 27 27 26 26 26 25 24 24 23 23 23 22 21 21 21 21 22 22 23 23 23 24 25 24 25 25 24 25 25 25 25 26 26 25 24
29 28 26 25 26 26 25 25 23 23 22 22 22 22 21 20 21 21 21 22 23 23 23 24 25 25 25 25 24 24 24 24 25 25 26 26 24 23
27 26 25 25 25 25 25 24 23 23 22 22 22 21 20 20 20 21 22 23 23 23 24 25 26 26 25 25 24 23 23 23 24 24 25 23 21 20
26 25 25 25 24 23 24 24 23 22 22 22 21 20 20 20 21 21 22 23 23 24 24 26 26 26 25 25 24 23 23 24 24 24 24 22 20 19
25 24 24 24 23 23 24 23 23 22 22 21 20 20 20 20 21 21 22 23 23 24 25 26 26 26 26 26 25 24 24 24 24 24 23 21 19 18
24 24 24 23 23 23 23 22 22 21 21 21 20 20 20 20 21 21 22 23 24 24 25 26 26 26 26 26 26 24 24 24 23 23 21 20 19 19
25 24 24 24 24 24 23 23 22 21 21 20 20 20 20 21 21 22 23 23 24 24 25 25 26 26 27 26 25 24 24 24 23 21 19 18 18 18
25 24 24 24 24 24 23 23 22 22 22 21 20 20 21 21 21 22 22 23 24 25 25 25 26 26 27 25 24 23 23 23 22 20 18 18 17 16
25 24 24 24 23 23 22 22 22 22 22 21 21 21 21 21 21 22 23 24 24 25 25 25 25 26 25 25 23 23 23 22 21 19 18 16 16 16
24 24 23 23 23 22 22 22 22 22 22 22 22 21 21 21 21 22 23 24 25 25 25 24 25 25 25 24 23 22 22 21 20 18 16 15 16 16
24 23 23 23 22 21 22 22 22 22 22 22 21 21 21 21 22 22 24 24 25 25 24 24 25 25 25 24 22 22 21 20 19 17 16 15 15 15
22 22 22 22 21 21 21 21 21 21 21 21 21 20 21 21 22 23 24 24 24 24 23 23 24 24 24 24 22 21 20 19 18 17 15 15 14 13
22 21 22 21 21 20 20 20 20 20 20 20 20 20 21 22 22 23 24 24 24 24 23 22 23 24 24 24 22 21 19 18 16 15 14 13 12 12
Wind_Direction
288 290 291 292 293 295 297 299 301 300 301 301 301 300 298 298 300 300 300 299 299 298 298 298 297 294 289 288 287 286 284 284 283 284 284 283 284 283
288 290 291 292 293 295 297 299 301 301 300 301 302 301 299 299 301 301 302 302 301 300 300 299 298 297 294 293 291 289 289 288 286 286 287 286 285 284
288 290 291 292 293 295 296 298 300 301 301 301 301 299 300 300 301 302 302 302 300 301 300 298 297 297 298 296 294 292 292 293 291 290 289 290 288 286
287 289 290 291 293 294 295 297 299 300 300 300 299 299 300 301 302 303 303 301 300 300 299 299 298 298 299 300 297 294 293 294 296 295 292 291 290 289
286 288 289 290 292 293 295 296 298 299 300 299 298 299 300 300 302 303 304 303 302 302 302 300 300 302 302 303 300 297 296 296 299 299 297 294 293 292
285 287 289 290 291 292 294 296 298 299 299 298 298 298 299 300 301 302 304 304 304 303 304 305 306 307 306 306 305 303 301 300 300 301 300 299 297 294
284 286 289 290 290 291 292 294 297 298 298 298 298 299 300 300 301 302 304 304 305 306 306 307 307 308 310 308 306 306 306 305 304 304 304 303 301 297
285 286 288 290 290 290 291 293 296 297 297 298 298 299 301 301 302 304 303 303 305 307 308 309 310 311 310 308 306 307 308 307 306 306 307 305 303 300
285 286 287 288 288 288 290 292 295 295 296 299 300 301 301 302 302 303 304 305 306 307 308 310 310 311 311 309 308 307 308 308 308 309 309 307 305 302
286 287 286 286 287 287 288 291 293 294 295 298 300 301 303 304 305 306 306 308 308 310 311 311 313 314 312 311 310 307 307 308 310 310 311 311 309 305
285 286 286 284 284 285 287 290 292 295 298 300 303 304 304 306 308 308 309 311 311 310 311 312 314 315 315 314 312 309 308 309 310 312 314 314 312 308
281 283 284 284 283 284 286 287 288 291 294 297 301 303 305 306 309 312 312 312 312 313 313 314 315 316 316 315 312 310 309 309 311 313 315 315 313 311
277 279 281 284 284 284 283 283 285 288 291 294 298 300 302 303 308 311 313 313 314 315 314 317 318 317 317 316 314 312 310 311 312 313 316 315 312 312
275 275 278 281 282 282 282 283 284 286 289 292 296 297 299 301 304 308 312 315 316 317 318 319 321 320 319 319 317 313 311 312 312 312 315 314 312 309
273 273 275 277 279 282 282 281 282 283 286 289 292 294 296 299 301 305 309 313 315 317 319 320 320 321 321 320 318 315 314 315 315 315 315 313 312 311
271 272 272 274 277 280 280 279 280 281 283 285 288 292 295 298 301 305 308 311 314 316 319 321 322 322 322 321 318 315 314 314 315 316 316 315 314 313
270 270 270 273 276 278 277 277 277 278 280 282 285 289 293 297 300 304 309 311 313 315 318 321 322 323 324 323 319 317 317 317 317 317 316 316 316 315
269 268 269 272 274 275 275 276 276 277 278 280 283 288 292 296 300 304 308 311 312 313 315 317 319 321 324 324 320 317 318 318 319 320 319 318 319 321
267 266 267 271 273 273 273 275 276 277 278 280 282 286 290 294 299 303 307 310 312 314 314 315 318 320 323 324 321 317 318 319 320 321 320 319 321 323
268 267 268 271 273 272 271 273 275 276 277 278 281 284 288 293 298 302 306 309 312 314 313 314 317 319 322 322 319 317 317 318 319 319 318 320 322 323
268 267 268 271 273 271 271 273 274 274 275 276 278 282 287 293 297 302 306 309 311 313 313 314 317 318 320 321 319 317 318 318 317 317 318 322 323 322
269 268 268 270 271 270 272 274 274 274 273 274 277 282 287 292 297 301 305 309 310 311 312 314 317 318 320 321 318 316 316 317 315 314 315 319 320 321
267 267 269 270 268 268 272 274 274 273 273 274 276 281 287 292 297 301 306 309 309 310 311 314 317 319 320 320 317 315 315 314 313 313 315 317 319 323
Height
5709 5706 5704 5701 5698 5694 5691 5687 5684 5680 5677 5672 5667 5662 5658 5655 5652 5649 5645 5641 5638 5634 5631 5628 5624 5622 5619 5617 5614 5612 5610 5608 5607 5605 5603 5601 5599 5597
5701 5698 5696 5693 5690 5686 5683 5679 5675 5671 5668 5664 5660 5656 5652 5648 5645 5642 5639 5635 5631 5627 5624 5621 5618 5614 5611 5608 5605 5603 5601 5599 5597 5594 5592 5590 5588 5586
5693 5691 5688 5685 5682 5679 5675 5672 5668 5664 5660 5657 5653 5649 5646 5642 5639 5636 5632 5628 5625 5621 5618 5614 5611 5607 5604 5601 5598 5595 5593 5590 5588 5585 5583 5580 5578 5576
5685 5682 5680 5677 5674 5670 5667 5664 5660 5656 5653 5650 5647 5643 5640 5636 5633 5629 5625 5622 5618 5615 5611 5608 5604 5600 5597 5594 5591 5588 5586 5583 5580 5577 5574 5572 5569 5566
5676 5674 5671 5668 5666 5662 5659 5656 5653 5649 5646 5643 5640 5637 5634 5630 5627 5623 5619 5615 5612 5608 5605 5602 5598 5595 5591 5587 5584 5581 5579 5576 5573 5569 5566 5563 5560 5557
5667 5665 5663 5660 5658 5655 5652 5649 5646 5643 5640 5637 5634 5631 5628 5624 5620 5617 5614 5610 5606 5603 5600 5596 5593 5590 5586 5582 5579 5576 5573 5570 5566 5562 5558 5555 5551 5548
5658 5656 5654 5652 5650 5647 5645 5642 5640 5637 5634 5631 5628 5625 5622 5618 5615 5611 5608 5604 5601 5598 5595 5592 5588 5585 5581 5577 5574 5570 5567 5563 5560 5556 5551 5548 5544 5541
5650 5648 5646 5644 5642 5640 5638 5636 5633 5630 5628 5625 5622 5619 5616 5612 5609 5606 5602 5599 5596 5594 5590 5587 5583 5580 5576 5572 5569 5565 5561 5557 5553 5550 5545 5541 5538 5535
5643 5641 5639 5637 5635 5633 5631 5629 5626 5624 5622 5619 5616 5613 5610 5607 5604 5600 5597 5593 5591 5588 5585 5582 5578 5574 5571 5567 5563 5560 5556 5552 5548 5544 5540 5536 5532 5528
5635 5634 5632 5630 5628 5626 5625 5623 5620 5618 5616 5614 5611 5608 5605 5602 5598 5595 5592 5589 5586 5583 5580 5578 5574 5570 5566 5562 5558 5554 5551 5547 5543 5538 5534 5530 5526 5522
5628 5627 5625 5623 5622 5620 5619 5617 5615 5613 5611 5608 5606 5603 5600 5597 5594 5591 5588 5585 5583 5580 5576 5573 5569 5565 5561 5557 5553 5549 5545 5541 5537 5533 5529 5524 5520 5516
5621 5619 5618 5617 5615 5614 5612 5611 5609 5608 5606 5604 5601 5598 5596 5593 5590 5588 5585 5582 5579 5576 5572 5568 5564 5560 5557 5552 5547 5543 5539 5536 5532 5527 5523 5518 5514 5511
5613 5612 5611 5610 5609 5608 5606 5605 5604 5602 5600 5598 5596 5594 5592 5589 5587 5584 5581 5578 5575 5571 5567 5563 5559 5555 5550 5547 5543 5538 5534 5530 5526 5522 5518 5514 5510 5506
5606 5605 5605 5604 5603 5601 5600 5599 5598 5596 5595 5593 5592 5590 5587 5585 5583 5580 5577 5574 5570 5567 5563 5559 5555 5550 5546 5542 5538 5534 5530 5526 5522 5517 5513 5509 5506 5502
5599 5598 5598 5597 5596 5595 5594 5593 5592 5591 5590 5588 5587 5585 5583 5581 5578 5576 5573 5570 5566 5563 5559 5554 5550 5546 5541 5537 5533 5530 5526 5522 5517 5513 5509 5505 5501 5498
5591 5591 5591 5590 5590 5589 5588 5587 5586 5585 5584 5583 5581 5580 5578 5576 5574 5571 5568 5565 5562 5559 5554 5550 5546 5542 5537 5533 5529 5525 5521 5517 5513 5509 5506 5502 5498 5495
5584 5584 5584 5584 5583 5583 5582 5581 5580 5580 5579 5578 5576 5575 5573 5571 5569 5566 5564 5560 5557 5554 5550 5546 5542 5538 5533 5529 5524 5520 5517 5513 5509 5505 5502 5499 5495 5492
5577 5577 5577 5577 5576 5576 5575 5575 5574 5574 5573 5572 5571 5570 5568 5566 5564 5561 5559 5556 5553 5549 5545 5542 5538 5534 5530 5525 5521 5517 5513 5509 5505 5501 5498 5495 5492 5489
5570 5570 5570 5570 5569 5569 5569 5568 5568 5567 5567 5566 5565 5564 5562 5560 5558 5556 5553 5551 5548 5544 5540 5537 5533 5529 5526 5522 5517 5512 5509 5505 5501 5498 5495 5492 5489 5486
5563 5563 5563 5563 5563 5562 5562 5562 5561 5561 5560 5559 5559 5558 5556 5555 5553 5551 5548 5545 5542 5539 5535 5532 5528 5525 5521 5517 5513 5509 5505 5501 5498 5495 5492 5489 5486 5483
5556 5556 5556 5556 5556 5555 5555 5555 5554 5554 5553 5553 5553 5552 5551 5549 5547 5545 5543 5540 5537 5533 5530 5527 5523 5520 5516 5512 5509 5505 5501 5497 5494 5491 5488 5486 5483 5480
5549 5549 5549 5549 5549 5549 5548 5548 5548 5547 5547 5547 5547 5546 5545 5543 5542 5540 5537 5534 5531 5528 5525 5521 5518 5515 5511 5508 5504 5501 5497 5494 5491 5488 5485 5482 5480 5477
5543 5543 5543 5543 5543 5542 5542 5542 5541 5541 5541 5541 5541 5540 5539 5538 5536 5534 5531 5528 5525 5522 5519 5516 5513 5510 5506 5502 5499 5496 5493 5490 5488 5485 5482 5479 5477 5474